Home > Weather > Pirmasens > Past weeks

Flag for Germany Past Weather in Pirmasens, Rhineland-Palatinate, Germany — Yesterday and Last 2 Weeks

Now
65 °F

Overcast.


Feels Like: 65 °F
Forecast: 47 / 63 °F
Wind: No wind

Location: Ramstein

Current Time: Jul 2, 2016 at 4:03:48 AM

Latest Report: Jul 2, 2016 at 2:58 AM


Visibility: N/A

Pressure: 29.90 "Hg

Humidity: 89%

Dew Point: 62 °F

Location of PirmasensLocation

Past Weather in Pirmasens — Graph

°F

Pirmasens Temperature Yesterday

Maximum temperature yesterday: 75 °F (at 5:58 PM)
Minimum temperature yesterday: 55 °F (at 12:58 AM)
Average temperature yesterday: 66 °F

High & Low Weather Summary for the Past Weeks

 TemperatureHumidityPressure
High93 °F (Jun 23, 6:58 PM)100% (Jun 17, 4:58 AM)30.27 "Hg (Jun 17, 4:58 AM)
Low45 °F (Jun 20, 4:46 AM)38% (Jun 29, 3:58 PM)29.62 "Hg (Jun 17, 2:58 AM)
Average64 °F83%30.05 "Hg
* Reported Jun 17 2:58 AM — Jul 2 2:58 AM, Pirmasens, Weather by CustomWeather, © 2016

Note: Actual official high and low records may vary slightly from our data, if they occured in-between our weather recording intervals... More about our weather records

Advertising

Pirmasens Weather History for the Previous 24 Hours

Scroll right to see more
 ConditionsComfort  
Time TempWeatherWind HumidityBarometerVisibility
2:58 AM
Sat, Jul 2
66 °FOvercast.No wind88%29.90 "HgN/A
1:58 AM63 °FPartly cloudy.No wind99%29.92 "HgN/A
12:58 AM64 °FPartly cloudy.No wind94%29.93 "HgN/A
11:58 PM
Fri, Jul 1
63 °FPassing clouds.No wind100%29.93 "HgN/A
10:58 PM64 °FPassing clouds.No wind99%29.93 "HgN/A
9:58 PM66 °FScattered clouds.No wind88%29.95 "HgN/A
8:58 PM72 °FSunny.No wind70%29.93 "HgN/A
7:58 PM74 °FPartly sunny.No wind63%29.94 "HgN/A
6:58 PM74 °FScattered clouds.6 mph60%29.96 "HgN/A
5:58 PM75 °FPartly sunny.8 mph57%29.96 "HgN/A
4:58 PM74 °FPassing clouds.7 mph58%29.98 "HgN/A
3:58 PM72 °FPartly sunny.7 mph62%30.00 "HgN/A
2:58 PM71 °FBroken clouds.9 mph62%30.01 "HgN/A
1:58 PM70 °FBroken clouds.8 mph67%30.01 "HgN/A
12:58 PM70 °FBroken clouds.7 mph68%30.03 "HgN/A
11:58 AM71 °FPassing clouds.10 mph67%30.02 "HgN/A
10:58 AM71 °FPartly sunny.10 mph66%30.02 "HgN/A
9:58 AM68 °FPartly sunny.6 mph75%30.02 "HgN/A
8:58 AM66 °FPartly sunny.5 mph79%30.02 "HgN/A
8:04 AM64 °FOvercast.6 mph83%30.03 "HgN/A
7:58 AM64 °FLight rain. Partly sunny.3 mph83%30.02 "HgN/A
6:58 AM63 °FOvercast.3 mph88%30.02 "HgN/A
5:58 AM63 °FOvercast.2 mph88%30.00 "HgN/A
4:58 AM59 °FPassing clouds.No wind100%30.00 "HgN/A
Weather by CustomWeather, © 2016

See weather overviewHow to use our weather pages